Terminal Aerodrome Forecast
Issued by NWS

Home | Current Version | Previous Version | Text Only | Print | Product List | Glossary Off
Versions: 1 2 3 4 5 6 7 8 9 10 11 12 13 14 15 16 17 18

000
FTUS43 KFGF 151400 AAA
TAFBJI
TAF AMD
KBJI 151451Z 1515/1612 33011KT 3SM BR OVC006
     FM151700 33012G18KT P6SM OVC008
     FM152000 33017G23KT P6SM BKN010=

USA.gov is the U.S. government's official web portal to all federal, state and local government web resources and services.